Location: Bakhuizen
(52.8696°N, 5.4575°E)
Time: 08:35:36
(UTC+00:00)

Cosmos 1862 Rocket - Pass Details

Date: 11 May 2021
Orbit: 604 x 633 km, 82.5° (Epoch: 15 June)

Event Time Altitude Azimuth Distance (km) Brightness Sun altitude
Exits shadow 22:10:40 31° 142° (SE) 1,061 4.2 -16.7°
Maximum altitude 22:12:10 44° 93° (E) 843 4.0 -16.8°
Drops below altitude 10° 22:16:17 10° 22° (NNE) 1,966 6.8 -17.0°
Sets 22:18:35 0° 16° (NNE) 2,875 7.9 -17.1°
